This demonstration page uses our WeatherBlox Daily Observations layout. Learn more.

Left ArrowRight Arrow

47.50024, -111.30081

Hourly Observations for March 9, 2017

Temp ( °F °C ) Dew Point ( °F °C ) Humidity (%) Winds ( mph kmh ) Pressure ( in mb ) Visibility ( mi km ) Precip ( " mm )
12:05 am 00:05 Cloudy with Light Snow 12 -11.1 8 -13.3 84 84 NNW 10 17 30.45 1031 1 2 0.00 0.03
12:29 am 00:29 Cloudy with Light Snow 11 -11.7 7 -13.9 84 84 N 12 19 30.48 1032 1 2 0.01 0.25
12:50 am 00:50 Cloudy with Light Snow 10 -12 7 -14 85 85 N 10 17 30.48 1032 2 2 0.00 0.00
12:51 am 00:51 Cloudy with Light Snow 10 -12 7 -14 85 85 N 10 17 30.48 1032 2 2 0.00 0.00
1:53 am 01:53 Cloudy with Light Snow 10 -12.2 5 -15 80 80 N 9 15 30.32 1027 2 2 0.02 0.51
1:56 am 01:56 Cloudy with Light Snow 10 -12 5 -15 79 79 N 12 19 30.48 1032 3 4 0.00 0.00
2:13 am 02:13 Cloudy with Light Snow 9 -12.8 5 -15 84 84 N 9 15 30.48 1032 3 4 0.00 0.03
2:46 am 02:46 Cloudy with Light Snow 9 -13 5 -15 85 85 N 10 17 30.48 1032 3 4 0.00 0.00
2:53 am 02:53 Cloudy with Haze 9 -12.8 4 -15.6 80 80 NNW 9 15 30.34 1027 3 5 0.00 0.03
3:34 am 03:34 Cloudy with Light Snow 9 -13 3 -16 78 78 N 8 13 30.48 1032 2 3 0.00 0.00
3:41 am 03:41 Cloudy with Light Snow 9 -12.8 4 -15.6 80 80 N 8 13 30.50 1033 1 2 0.00 0.03
3:53 am 03:53 Cloudy with Light Snow 8 -13.3 4 -15.6 83 83 N 9 15 30.36 1028 1 2 0.00 0.03
4:07 am 04:07 Cloudy with Light Snow 8 -13.3 4 -15.6 83 83 N 9 15 30.53 1034 3 5 0.00 0.03
4:53 am 04:53 Cloudy with Light Snow 8 -13.3 3 -16.1 80 80 N 9 15 30.39 1029 4 6 0.01 0.25
5:53 am 05:53 Cloudy with Light Snow 7 -13.9 2 -16.7 80 80 NNW 12 19 30.44 1031 5 8 0.00 0.03
6:53 am 06:53 Cloudy with Light Snow 7 -13.9 2 -16.7 80 80 NNW 10 17 30.49 1032 4 6 0.00 0.03
7:53 am 07:53 Cloudy with Light Snow 6 -14.4 1 -17.2 79 79 N 9 15 30.53 1034 5 8 0.00 0.03
8:20 am 08:20 Cloudy with Light Snow 7 -14 1 -17 78 78 N 10 17 30.68 1039 3 4 0.00 0.00
8:41 am 08:41 Cloudy with Light Snow 7 -13.9 1 -17.2 76 76 N 9 15 30.68 1039 4 6 0.00 0.03
8:53 am 08:53 Cloudy with Light Snow 6 -14.4 1 -17.2 79 79 NNW 9 15 30.57 1035 4 6 0.00 0.03
9:53 am 09:53 Cloudy with Light Snow 8 -13.3 2 -16.7 76 76 N 7 11 30.60 1036 5 8 0.00 0.03
10:30 am 10:30 Cloudy with Light Snow 9 -13 1 -17 72 72 NNE 7 11 30.68 1039 3 4 0.00 0.00
10:53 am 10:53 Cloudy with Light Snow 9 -12.8 2 -16.7 73 73 NNW 6 9 30.61 1037 6 10 0.01 0.25
11:19 am 11:19 Cloudy with Light Snow 10 -12.2 2 -16.7 69 69 Calm 30.68 1039 3 4 0.00 0.03
11:53 am 11:53 Cloudy with Light Snow 11 -11.7 2 -16.7 67 67 N 3 6 30.62 1037 2 3 0.00 0.03
12:30 pm 12:30 Cloudy with Light Snow 12 -11.1 4 -15.6 70 70 NNW 3 6 30.68 1039 2 3 0.00 0.03
12:53 pm 12:53 Cloudy with Light Snow 12 -11.1 4 -15.6 70 70 NE 7 11 30.61 1037 1 2 0.01 0.25
1:19 pm 13:19 Cloudy with Light Snow 12 -11.1 4 -15.6 70 70 NNE 7 11 30.65 1038 2 3 0.00 0.03
1:27 pm 13:27 Cloudy with Light Snow 12 -11.1 4 -15.6 70 70 NE 7 11 30.65 1038 5 8 0.00 0.03
1:53 pm 13:53 Cloudy 12 -11.1 4 -15.6 70 70 ENE 5 7 30.60 1036 10 16 0.00 0.03
2:53 pm 14:53 Cloudy 13 -10.6 4 -15.6 67 67 NE 8 13 30.59 1036 10 16 0.00 0.00
3:05 pm 15:05 Cloudy 12 -11.1 4 -15.6 70 70 NE 6 9 30.65 1038 9 14 0.00 0.00
3:53 pm 15:53 Cloudy with Light Snow 13 -10.6 5 -15 70 70 NE 6 9 30.59 1036 3 4 0.00 0.03
4:01 pm 16:01 Cloudy with Light Snow 12 -11.1 5 -15 73 73 ENE 6 9 30.65 1038 2 2 0.00 0.03
4:12 pm 16:12 Cloudy with Light Snow 12 -11 7 -14 79 79 NE 7 11 30.65 1038 1 2 0.00 0.00
4:21 pm 16:21 Mostly Cloudy with Light Snow 12 -11.1 6 -14.4 77 77 NE 7 11 30.65 1038 1 1 0.01 0.25
4:32 pm 16:32 Cloudy with Snow 12 -11 7 -14 79 79 ENE 9 15 30.62 1037 1 1 0.00 0.00
4:38 pm 16:38 Cloudy with Light Snow 12 -11 7 -14 79 79 NE 8 13 30.62 1037 1 2 0.00 0.00
4:53 pm 16:53 Cloudy with Light Snow 12 -11.1 6 -14.4 77 77 ENE 9 15 30.59 1036 1 2 0.01 0.25
5:05 pm 17:05 Cloudy with Light Snow 11 -11.7 6 -14.4 81 81 NE 8 13 30.62 1037 1 1 0.01 0.25
5:12 pm 17:12 Cloudy with Light Snow 10 -12 7 -14 85 85 NE 10 17 30.65 1038 1 2 0.00 0.00
5:36 pm 17:36 Mostly Cloudy with Light Snow 10 -12 7 -14 85 85 NE 9 15 30.65 1038 1 1 0.00 0.00
5:53 pm 17:53 Cloudy with Light Snow 10 -12.2 5 -15 80 80 ENE 10 17 30.58 1036 1 2 0.02 0.51
6:53 pm 18:53 Cloudy with Light Snow 10 -12.2 6 -14.4 84 84 NE 9 15 30.57 1035 1 2 0.01 0.25
7:11 pm 19:11 Cloudy with Light Snow 10 -12.2 5 -15 80 80 NE 9 15 30.59 1036 2 3 0.01 0.25
7:30 pm 19:30 Cloudy with Light Snow 10 -12 7 -14 85 85 NNE 7 11 30.59 1036 3 4 0.00 0.00
7:53 pm 19:53 Cloudy with Light Snow 10 -12.2 5 -15 80 80 NE 9 15 30.55 1035 3 4 0.01 0.25
8:10 pm 20:10 Cloudy with Light Snow 10 -12 5 -15 79 79 NE 9 15 30.59 1036 3 5 0.00 0.00
8:16 pm 20:16 Cloudy with Light Snow 10 -12 5 -15 79 79 NE 8 13 30.56 1035 2 3 0.00 0.00
8:23 pm 20:23 Cloudy with Light Snow 10 -12.2 6 -14.4 84 84 NE 7 11 30.56 1035 2 2 0.01 0.25
8:53 pm 20:53 Cloudy with Light Snow 10 -12.2 6 -14.4 84 84 NNE 7 11 30.53 1034 2 2 0.02 0.51
9:33 pm 21:33 Cloudy with Light Snow 10 -12.2 6 -14.4 84 84 NE 6 9 30.56 1035 1 2 0.01 0.25
9:42 pm 21:42 Cloudy with Light Snow 10 -12 7 -14 85 85 NNE 6 9 30.53 1034 2 2 0.00 0.00
9:53 pm 21:53 Mostly Cloudy with Light Snow 10 -12.2 6 -14.4 84 84 NNE 6 9 30.48 1032 1 2 0.02 0.51
10:12 pm 22:12 Mostly Cloudy with Light Snow 10 -12.2 6 -14.4 84 84 NNE 5 7 30.53 1034 1 2 0.01 0.25
10:30 pm 22:30 Mostly Cloudy with Light Snow 10 -12 7 -14 85 85 NNE 6 9 30.53 1034 1 1 0.00 0.00
10:37 pm 22:37 Mostly Cloudy with Light Snow 10 -12.2 7 -13.9 87 87 N 5 7 30.53 1034 1 2 0.03 0.76
10:53 pm 22:53 Cloudy with Light Snow 10 -12.2 7 -13.9 87 87 NNE 5 7 30.45 1031 1 2 0.03 0.76
11:06 pm 23:06 Cloudy with Light Snow 10 -12 7 -14 85 85 NE 6 9 30.50 1033 2 2 0.00 0.00
11:43 pm 23:43 Cloudy with Light Snow 11 -11.7 7 -13.9 84 84 NNE 3 6 30.48 1032 2 3 0.02 0.51
11:53 pm 23:53 Cloudy with Light Snow 11 -11.7 7 -13.9 84 84 N 3 6 30.42 1030 3 5 0.02 0.51

Powered by AerisWeather